TDR9152 LDSP-LDDU

Flight info

Callsign TDR9152
Flight time 0h 19m
Altitude 17000
Route SIPAL
Aircraft A320/M-SDE3FGHIRWY/LB1

Departure

Time 2026-04-29 11:48
Airport Split Saint Jerome Airport (LDSP)

Arrival

Time 2026-04-29 12:07
Airport Dubrovnik Ruđer Bošković Airport (LDDU)
Time Latitude Longitude Altitude Speed Heading
2026-04-29 11:15 43.53545 16.29742 63 ft 0 kts 103°
2026-04-29 11:31 43.53541 16.29746 68 ft 3 kts 138°
2026-04-29 11:31 43.53541 16.29681 63 ft 14 kts 309°
2026-04-29 11:31 43.53618 16.29604 68 ft 12 kts 345°
2026-04-29 11:32 43.53697 16.29681 64 ft 18 kts 52°
2026-04-29 11:32 43.53781 16.29837 68 ft 22 kts 53°
2026-04-29 11:32 43.53879 16.30017 64 ft 23 kts 53°
2026-04-29 11:32 43.54029 16.30108 62 ft 27 kts 21°
2026-04-29 11:33 43.54168 16.30294 61 ft 30 kts 52°
2026-04-29 11:33 43.54302 16.30536 51 ft 34 kts 52°
2026-04-29 11:33 43.54451 16.30807 51 ft 37 kts 53°
2026-04-29 11:33 43.54548 16.31000 52 ft 15 kts 82°
2026-04-29 11:34 43.54582 16.31058 53 ft 5 kts 307°
2026-04-29 11:34 43.54577 16.31031 53 ft 0 kts 237°
2026-04-29 11:37 43.54569 16.31015 53 ft 12 kts 237°
2026-04-29 11:37 43.54321 16.30578 51 ft 101 kts 232°
2026-04-29 11:38 43.54102 16.30161 60 ft 0 kts 232°
2026-04-29 11:38 43.54091 16.30145 63 ft 12 kts 224°
2026-04-29 11:38 43.53987 16.30092 56 ft 17 kts 195°
2026-04-29 11:38 43.53885 16.30022 65 ft 17 kts 231°
2026-04-29 11:39 43.53815 16.29898 65 ft 16 kts 234°
2026-04-29 11:39 43.53748 16.29775 64 ft 13 kts 233°
2026-04-29 11:39 43.53743 16.29765 68 ft 2 kts 233°
2026-04-29 11:39 43.53697 16.29655 66 ft 19 kts 262°
2026-04-29 11:40 43.53704 16.29505 85 ft 10 kts 302°
2026-04-29 11:40 43.53755 16.29547 81 ft 11 kts 52°
2026-04-29 11:40 43.53842 16.29698 70 ft 25 kts 52°
2026-04-29 11:40 43.53956 16.29908 72 ft 29 kts 52°
2026-04-29 11:41 43.54089 16.30146 65 ft 33 kts 52°
2026-04-29 11:41 43.54230 16.30403 58 ft 34 kts 52°
2026-04-29 11:41 43.54379 16.30671 53 ft 36 kts 53°
2026-04-29 11:41 43.54524 16.30936 51 ft 33 kts 50°
2026-04-29 11:42 43.54559 16.31059 50 ft 6 kts 39°
2026-04-29 11:42 43.54562 16.31001 52 ft 8 kts 233°
2026-04-29 11:42 43.54560 16.30998 47 ft 0 kts 233°
2026-04-29 11:47 43.54546 16.30973 52 ft 28 kts 232°
2026-04-29 11:47 43.54208 16.30365 53 ft 124 kts 233°
2026-04-29 11:47 43.53571 16.29219 482 ft 159 kts 231°
2026-04-29 11:48 43.52787 16.28136 1405 ft 162 kts 204°
2026-04-29 11:48 43.51692 16.28040 2348 ft 165 kts 164°
2026-04-29 11:48 43.50618 16.28847 2984 ft 193 kts 135°
2026-04-29 11:48 43.49867 16.30517 3813 ft 220 kts 116°
2026-04-29 11:49 43.49081 16.32464 4675 ft 246 kts 122°
2026-04-29 11:49 43.48102 16.34539 5497 ft 272 kts 124°
2026-04-29 11:49 43.46992 16.36795 6294 ft 297 kts 125°
2026-04-29 11:49 43.45782 16.39248 6964 ft 323 kts 125°
2026-04-29 11:50 43.44485 16.41914 7546 ft 348 kts 125°
2026-04-29 11:50 43.43100 16.44788 8017 ft 373 kts 124°
2026-04-29 11:50 43.41631 16.47844 8615 ft 389 kts 124°
2026-04-29 11:50 43.40129 16.50980 9561 ft 395 kts 124°
2026-04-29 11:51 43.38609 16.54158 10455 ft 401 kts 124°
2026-04-29 11:51 43.37060 16.57388 11277 ft 408 kts 124°
2026-04-29 11:51 43.35484 16.60664 12083 ft 415 kts 124°
2026-04-29 11:51 43.33877 16.63996 12876 ft 422 kts 124°
2026-04-29 11:52 43.32242 16.67381 13666 ft 429 kts 124°
2026-04-29 11:52 43.30577 16.70814 14371 ft 435 kts 124°
2026-04-29 11:52 43.28890 16.74295 15040 ft 441 kts 124°
2026-04-29 11:52 43.27180 16.77824 15684 ft 446 kts 124°
2026-04-29 11:53 43.25454 16.81391 16332 ft 451 kts 125°
2026-04-29 11:53 43.23706 16.84996 16878 ft 456 kts 125°
2026-04-29 11:53 43.21944 16.88628 17034 ft 459 kts 125°
2026-04-29 11:53 43.20151 16.92319 17078 ft 459 kts 125°
2026-04-29 11:54 43.18404 16.95906 17075 ft 459 kts 125°
2026-04-29 11:54 43.16631 16.99541 17076 ft 459 kts 125°
2026-04-29 11:54 43.14858 17.03173 17076 ft 459 kts 125°
2026-04-29 11:54 43.13081 17.06805 17077 ft 459 kts 125°
2026-04-29 11:55 43.11304 17.10429 17080 ft 458 kts 125°
2026-04-29 11:55 43.09526 17.14052 17078 ft 458 kts 125°
2026-04-29 11:55 43.07751 17.17668 17079 ft 458 kts 125°
2026-04-29 11:55 43.05976 17.21286 17078 ft 458 kts 125°
2026-04-29 11:56 43.04200 17.24903 17076 ft 458 kts 125°
2026-04-29 11:56 43.02423 17.28518 16760 ft 458 kts 125°
2026-04-29 11:56 43.00660 17.32105 16132 ft 453 kts 125°
2026-04-29 11:56 42.98923 17.35669 15511 ft 448 kts 124°
2026-04-29 11:57 42.97223 17.39204 14904 ft 443 kts 124°
2026-04-29 11:57 42.95551 17.42711 14303 ft 438 kts 123°
2026-04-29 11:57 42.93903 17.46181 13674 ft 433 kts 123°
2026-04-29 11:57 42.92272 17.49607 12887 ft 427 kts 124°
2026-04-29 11:58 42.90661 17.52976 12111 ft 421 kts 124°
2026-04-29 11:58 42.89071 17.56293 11357 ft 415 kts 124°
2026-04-29 11:58 42.87498 17.59562 10619 ft 410 kts 124°
2026-04-29 11:58 42.85943 17.62788 9891 ft 405 kts 124°
2026-04-29 11:59 42.84408 17.65971 9107 ft 399 kts 124°
2026-04-29 11:59 42.82895 17.69107 8439 ft 393 kts 124°
2026-04-29 11:59 42.81400 17.72204 7815 ft 389 kts 124°
2026-04-29 11:59 42.79918 17.75263 7201 ft 385 kts 124°
2026-04-29 12:00 42.78444 17.78291 6652 ft 382 kts 124°
2026-04-29 12:00 42.76985 17.81290 6097 ft 378 kts 124°
2026-04-29 12:00 42.75546 17.84250 5546 ft 373 kts 125°
2026-04-29 12:00 42.74126 17.87172 5001 ft 368 kts 125°
2026-04-29 12:01 42.72726 17.90051 4561 ft 362 kts 125°
2026-04-29 12:01 42.71343 17.92896 4177 ft 359 kts 125°
2026-04-29 12:01 42.69969 17.95717 3807 ft 356 kts 125°
2026-04-29 12:01 42.68607 17.98505 3441 ft 353 kts 124°
2026-04-29 12:02 42.67255 18.01270 3069 ft 350 kts 125°
2026-04-29 12:02 42.65937 18.03974 2697 ft 326 kts 124°
2026-04-29 12:02 42.64814 18.06304 2560 ft 264 kts 124°
2026-04-29 12:02 42.63907 18.08183 2560 ft 215 kts 124°
2026-04-29 12:03 42.63143 18.09751 2598 ft 187 kts 124°
2026-04-29 12:03 42.62426 18.11199 2607 ft 185 kts 124°
2026-04-29 12:03 42.61768 18.12653 2550 ft 176 kts 121°
2026-04-29 12:03 42.61187 18.14071 2320 ft 169 kts 120°
2026-04-29 12:04 42.60637 18.15466 2066 ft 166 kts 119°
2026-04-29 12:04 42.60113 18.16801 1817 ft 155 kts 120°
2026-04-29 12:04 42.59623 18.18036 1671 ft 140 kts 121°
2026-04-29 12:04 42.59173 18.19161 1492 ft 134 kts 122°
2026-04-29 12:05 42.58734 18.20262 1314 ft 132 kts 121°
2026-04-29 12:05 42.58304 18.21353 1148 ft 131 kts 122°
2026-04-29 12:05 42.57872 18.22434 991 ft 134 kts 122°
2026-04-29 12:05 42.57440 18.23531 756 ft 125 kts 122°
2026-04-29 12:06 42.57039 18.24547 622 ft 122 kts 121°
2026-04-29 12:06 42.56664 18.25506 536 ft 104 kts 124°
2026-04-29 12:06 42.56377 18.26219 534 ft 75 kts 116°
2026-04-29 12:06 42.56162 18.26757 534 ft 56 kts 117°
2026-04-29 12:07 42.55997 18.27172 534 ft 41 kts 121°
2026-04-29 12:07 42.55870 18.27331 532 ft 23 kts 173°
2026-04-29 12:07 42.55772 18.27290 534 ft 16 kts 272°
2026-04-29 12:07 42.55819 18.27153 534 ft 16 kts 298°
2026-04-29 12:08 42.55871 18.27020 535 ft 16 kts 298°
2026-04-29 12:08 42.55924 18.26886 534 ft 16 kts 298°
2026-04-29 12:08 42.55978 18.26751 535 ft 16 kts 298°
2026-04-29 12:08 42.56032 18.26614 534 ft 17 kts 298°
2026-04-29 12:09 42.56087 18.26476 534 ft 17 kts 299°
2026-04-29 12:09 42.56109 18.26423 534 ft 0 kts 299°
2026-04-29 12:09 42.56112 18.26395 534 ft 7 kts 259°
2026-04-29 12:09 42.56088 18.26367 534 ft 7 kts 211°
2026-04-29 12:10 42.56069 18.26352 534 ft 0 kts 208°